Flag for Germany Weather past 2 weeks in Dessau-Rosslau, Saxony-Anhalt, Germany

Now
39 °F

Passing clouds.


Feels Like: 30 °F
Forecast: 33 / 39 °F
Wind: 18 mph from Southwest

Location: Leipzig-Schkeuditz

Current Time: Jan 28, 2015 at 5:59:08 PM

Latest Report: Jan 28, 2015 at 5:20 PM


Visibility: N/A

Pressure: 29.56 "Hg

Humidity: 81%

Dew point: 34 °F

Location of Dessau-RosslauLocation

Historic Weather in Dessau-Rosslau — Graph

°F

Dessau-Rosslau temperature yesterday

Maximum temperature yesterday: 41 °F (at 2:20 PM)
Minimum temperature yesterday: 36 °F (at 12:20 AM)
Average temperature yesterday: 38 °F

Past Weeks' High & Low Weather Summary

 TemperatureHumidityPressure
High54 °F (Jan 13, 5:20 PM)100% (Jan 16, 5:50 PM)30.30 "Hg (Jan 16, 5:50 PM)
Low27 °F (Jan 18, 6:50 AM)44% (Jan 13, 5:50 PM)29.59 "Hg (Jan 15, 7:20 PM)
Average36 °F90%29.96 "Hg
* Reported Jan 13 4:20 PM — Jan 28 4:50 PM, Dessau-Rosslau, Weather by CustomWeather, © 2014

Note: Actual official high and low records may vary slightly from our data, if they occured in-between our weather recording intervals... More about our weather records

Advertising

Dessau-Rosslau weather history for previous 24 hours

 ConditionsComfort  
Time TempWeatherWind HumidityBarometerVisibility
4:50 PM
Jan 28
39 °FPartly sunny.22 mph81%29.59 "HgN/A
4:20 PM39 °FPartly sunny.20 mph81%29.62 "HgN/A
3:50 PM39 °FPartly sunny.22 mph81%29.65 "HgN/A
3:20 PM41 °FPartly sunny.21 mph76%29.65 "HgN/A
2:50 PM41 °FPartly sunny.22 mph76%29.68 "HgN/A
2:20 PM41 °FPartly sunny.20 mph76%29.71 "HgN/A
1:50 PM41 °FPartly sunny.22 mph76%29.74 "HgN/A
1:20 PM41 °FBroken clouds.21 mph76%29.77 "HgN/A
12:50 PM41 °FPartly sunny.21 mph76%29.80 "HgN/A
12:20 PM41 °FMore clouds than sun.18 mph76%29.83 "HgN/A
11:50 AM41 °FPartly sunny.17 mph76%29.86 "HgN/A
11:20 AM39 °FBroken clouds.17 mph81%29.89 "HgN/A
10:50 AM39 °FPartly sunny.16 mph81%29.92 "HgN/A
10:20 AM39 °FBroken clouds.15 mph81%29.92 "HgN/A
9:50 AM39 °FBroken clouds.13 mph81%29.92 "HgN/A
9:20 AM37 °FPartly sunny.12 mph87%29.95 "HgN/A
8:50 AM36 °FPartly sunny.13 mph93%29.95 "HgN/A
8:20 AM36 °FPartly sunny.12 mph93%29.95 "HgN/A
7:50 AM34 °FPartly cloudy.13 mph100%29.98 "HgN/A
7:20 AM36 °FPassing clouds.12 mph93%29.98 "HgN/A
6:50 AM36 °FPartly cloudy.10 mph93%29.98 "HgN/A
6:20 AM36 °FPassing clouds.12 mph93%30.01 "HgN/A
5:50 AM36 °FPartly cloudy.10 mph93%30.01 "HgN/A
5:20 AM36 °FPassing clouds.9 mph93%30.01 "HgN/A
4:50 AM36 °FPassing clouds.9 mph93%30.04 "HgN/A
4:20 AM36 °FPassing clouds.10 mph93%30.04 "HgN/A
3:50 AM36 °FPassing clouds.12 mph93%30.04 "HgN/A
3:20 AM36 °FPassing clouds.10 mph93%30.04 "HgN/A
2:50 AM36 °FPassing clouds.10 mph93%30.07 "HgN/A
2:20 AM36 °FPassing clouds.16 mph93%30.07 "HgN/A
1:50 AM36 °FPassing clouds.14 mph93%30.07 "HgN/A
1:20 AM36 °FPartly cloudy.13 mph93%30.07 "HgN/A
12:50 AM36 °FPassing clouds.10 mph93%30.07 "HgN/A
12:20 AM36 °FPassing clouds.12 mph93%30.07 "HgN/A
11:50 PM
Jan 27
36 °FPassing clouds.10 mph93%30.07 "HgN/A
11:20 PM36 °FPartly cloudy.10 mph93%30.07 "HgN/A
10:50 PM36 °FPartly cloudy.10 mph93%30.07 "HgN/A
10:20 PM36 °FPassing clouds.10 mph93%30.07 "HgN/A
9:50 PM36 °FPassing clouds.10 mph93%30.07 "HgN/A
9:20 PM36 °FPassing clouds.12 mph87%30.07 "HgN/A
8:50 PM37 °FPassing clouds.13 mph87%30.07 "HgN/A
8:20 PM37 °FPassing clouds.12 mph87%30.07 "HgN/A
7:50 PM37 °FPassing clouds.14 mph87%30.07 "HgN/A
7:20 PM39 °FPassing clouds.14 mph81%30.04 "HgN/A
6:50 PM39 °FPassing clouds.14 mph81%30.04 "HgN/A
6:20 PM39 °FPassing clouds.12 mph75%30.04 "HgN/A
5:50 PM39 °FPassing clouds.15 mph81%30.01 "HgN/A
5:20 PM39 °FPassing clouds.13 mph81%30.01 "HgN/A
Weather by CustomWeather, © 2014

See weather overviewHow to use our weather pages